Terminal Aerodrome Forecast
Issued by NWS Sioux Falls, SD

Home | Current Version | Previous Version | Graphics & Text | Print | Product List | Glossary On
Versions: 1 2 3 4 5 6 7 8 9 10 11 12 13 14
000
FTUS43 KFSD 302034 AAB
TAFFSD
TAF AMD
KFSD 302034Z 3021/0118 05027G39KT P6SM -RA SCT015 OVC060
     FM302300 05020G28KT P6SM RA OVC020
     FM010200 04014G21KT P6SM RA OVC020
     FM010500 04012KT P6SM RA OVC025
     FM010900 03011KT P6SM BKN040
     FM011400 03013G20KT P6SM SCT040=

USA.gov is the U.S. government's official web portal to all federal, state and local government web resources and services.